Temp
8 8 8 8 8 8 8 8 8 8 7 7 6 7 6 5 5 6 6 5 5 6
7 8 8 8 7 7 6 7 7 7 6 5 5 5 5 4 4 4 5 5 5 4
4 6 7 7 7 7 6 6 5 5 4 4 4 4 3 3 2 4 3 3 4 4
1 2 5 6 5 5 4 4 3 3 3 3 2 2 2 1 2 1 2 2 2 2
-1 -1 0 2 2 3 1 2 2 1 1 1 1 1 1 1 0 0 1 1 0 1
-3 -3 -2 -1 -1 -1 -0 -0 -0 -0 -0 -1 -1 -1 -1 -1 -2 -2 -2 -1 -1 -1
-5 -4 -3 -2 -2 -2 -1 -1 -1 -1 -1 -1 -2 -2 -2 -3 -3 -4 -3 -3 -2 -2
-7 -6 -5 -4 -3 -3 -2 -2 -2 -2 -3 -3 -3 -3 -3 -3 -4 -3 -3 -3 -3 -3
-8 -8 -7 -6 -5 -5 -4 -4 -5 -5 -4 -4 -5 -5 -4 -4 -4 -4 -4 -4 -4 -5
-9 -9 -8 -8 -7 -7 -7 -6 -6 -6 -6 -6 -6 -6 -6 -5 -5 -5 -5 -5 -5 -5
-10 -10 -9 -9 -8 -8 -8 -8 -7 -7 -7 -7 -7 -7 -7 -7 -6 -7 -6 -6 -6 -6
-11 -11 -10 -9 -9 -9 -9 -8 -8 -8 -7 -7 -7 -7 -7 -7 -7 -7 -6 -6 -6 -6
-12 -11 -11 -11 -10 -9 -9 -9 -9 -8 -8 -8 -7 -7 -7 -7 -7 -7 -6 -7 -7 -7
-13 -12 -12 -11 -11 -10 -10 -9 -9 -9 -9 -8 -8 -7 -7 -7 -7 -7 -7 -7 -7 -7
Height
1410 1416 1422 1427 1432 1439 1444 1451 1456 1462 1467 1471 1478 1483 1488 1493 1498 1501 1506 1509 1513 1517
1402 1409 1415 1420 1426 1433 1439 1445 1451 1457 1461 1467 1473 1478 1482 1489 1493 1498 1501 1505 1509 1513
1397 1402 1409 1415 1419 1425 1433 1439 1445 1451 1457 1463 1466 1473 1478 1483 1489 1495 1499 1501 1506 1509
1393 1396 1404 1408 1415 1420 1427 1433 1439 1446 1452 1457 1462 1470 1475 1480 1485 1490 1494 1498 1501 1505
1396 1400 1399 1402 1409 1415 1422 1429 1434 1441 1447 1453 1458 1465 1469 1475 1480 1486 1490 1493 1496 1501
1406 1400 1404 1403 1408 1417 1420 1424 1432 1438 1443 1448 1454 1460 1464 1471 1476 1482 1488 1491 1495 1498
1412 1406 1413 1407 1414 1415 1421 1426 1431 1437 1441 1446 1452 1457 1460 1467 1473 1478 1486 1490 1493 1496
1414 1416 1414 1414 1419 1420 1422 1426 1432 1437 1440 1445 1450 1455 1459 1466 1473 1477 1483 1486 1489 1492
1420 1421 1419 1421 1422 1421 1424 1430 1434 1438 1441 1445 1450 1455 1460 1466 1471 1474 1480 1483 1487 1490
1428 1427 1428 1429 1427 1429 1430 1432 1436 1440 1444 1447 1451 1455 1459 1465 1469 1473 1477 1481 1486 1489
1434 1433 1435 1434 1433 1434 1436 1437 1440 1443 1446 1449 1453 1456 1460 1464 1469 1473 1477 1481 1484 1486
1441 1439 1439 1439 1440 1440 1441 1442 1443 1445 1448 1451 1454 1457 1460 1464 1468 1471 1475 1478 1481 1485
1446 1445 1443 1444 1445 1445 1446 1447 1447 1448 1450 1452 1456 1459 1460 1463 1467 1470 1474 1477 1481 1484
1450 1449 1448 1448 1447 1448 1448 1449 1448 1450 1451 1453 1456 1459 1461 1464 1467 1470 1473 1477 1480 1484
Wind_Speed
46 44 43 42 42 42 41 41 38 36 35 34 32 31 29 29 29 28 28 28 28 24
44 42 41 39 41 40 41 37 37 39 37 35 35 34 31 29 29 29 28 27 25 24
32 38 40 39 40 38 40 36 36 36 35 37 36 36 37 35 30 29 28 27 26 24
23 28 36 36 37 37 36 35 35 35 36 33 34 34 33 32 31 29 28 26 25 23
14 21 25 31 31 33 33 34 33 32 33 34 33 33 33 32 30 30 29 29 25 22
13 17 21 24 27 28 29 29 29 29 30 30 31 31 29 29 29 25 23 24 24 23
11 12 14 17 20 21 21 22 23 25 27 28 29 29 30 31 31 29 27 24 24 24
14 9 8 11 13 17 17 16 18 22 24 23 23 25 27 27 24 21 20 19 18 18
15 11 8 8 10 13 15 16 18 19 20 22 23 22 22 21 17 17 16 15 14 14
19 16 11 8 9 13 17 18 18 19 20 20 19 18 17 17 16 14 11 11 14 15
19 17 15 13 12 13 16 20 22 22 22 22 21 19 20 20 17 14 13 15 15 13
17 16 13 12 13 14 13 16 20 22 22 22 19 16 20 19 15 14 15 16 16 16
13 12 11 10 8 8 10 13 15 19 20 19 17 17 14 16 16 16 16 16 15 15
11 9 7 6 5 5 7 8 11 13 15 15 16 17 14 12 12 13 13 13 13 13
Wind_Direction
214 212 214 214 213 213 209 208 209 204 206 204 206 207 202 200 201 204 207 207 211 217
209 210 212 212 210 215 210 214 212 212 211 208 205 203 202 205 206 206 207 209 214 218
208 208 207 210 210 206 207 208 205 208 206 207 208 212 208 209 207 212 211 212 215 218
191 197 199 201 203 200 198 199 198 199 202 206 204 205 205 204 209 214 216 216 217 222
158 174 179 181 187 192 189 189 194 195 197 197 200 204 204 207 206 209 210 212 213 217
115 125 142 150 163 173 179 181 186 190 192 193 194 196 197 205 206 207 210 205 197 206
89 106 133 134 152 158 168 175 179 189 193 192 195 197 199 198 198 196 209 219 228 229
60 86 109 133 152 159 164 173 184 187 181 183 191 196 192 192 196 201 213 207 206 204
59 60 77 118 146 150 156 166 173 177 180 176 173 173 176 176 187 172 184 184 194 194
68 69 79 105 127 149 156 160 162 162 165 164 165 170 174 175 175 174 178 190 198 189
59 67 74 86 108 135 151 156 158 158 162 160 151 163 168 168 174 189 203 191 189 189
45 57 68 82 96 108 122 139 149 153 155 153 158 174 175 183 193 194 181 178 177 178
32 45 55 67 89 119 137 142 149 154 161 167 157 164 174 174 173 177 178 179 183 189
24 32 42 55 74 106 131 153 162 170 171 175 180 172 177 179 186 185 175 178 181 184